Tracking 30261 objects as of 18-Feb-2025
HD Live streaming from Space Station
objects crossing your sky now

ARIANE 1 DEB

Track ARIANE 1 DEB now!


NORAD ID: 25822
Int'l Code: 1984-023D
Perigee: 1,042.1 km
Apogee: 31,603.7 km
Inclination: 8.1 °
Period: 567.1 minutes
Semi major axis: 22693 km
RCS: 0.3362 m2 (medium)
Launch date: March 5, 1984
Source: European Space Agency (ESA)
Launch site: FRENCH GUIANA (FRGUI)

Note: This is SATELLITE DEBRIS
Your satellite tracking list
Your tracking list is empty




NASA's NSSDC Master Catalog

Two Line Element Set (TLE):
1 25822U 84023D   25044.50955723 -.00000169  00000-0  00000-0 0  9994
2 25822   8.0878 254.8595 6733458 100.9443 304.9296  2.53944695242173
Source of the keplerian elements: AFSPC